KE0NJH Weather Reports


time (UTC)temp
C
wind
direction
speed
KPH
gust
KPH
rain 1hr
cm
rain 24hr
cm
rain mn
cm
humidity
%
barometer
mb
20260906103507 20 84 0.0 1.6 0.00 0.00 0.00 94 1018.2
20260906103020 20 84 0.0 1.6 0.00 0.00 0.00 94 1018.2
20260906102508 20 84 0.0 1.6 0.00 0.00 0.00 94 1018.2
20260906102010 20 49 0.0 0.0 0.00 0.00 0.00 94 1018.3
20260906101526 20 49 0.0 3.2 0.00 0.00 0.00 94 1018.4
20260906101013 20 49 0.0 6.4 0.00 0.00 0.00 94 1018.5
20260906100516 20 49 1.6 6.4 0.00 0.00 0.00 94 1018.4
20260906100033 20 46 3.2 4.8 0.00 0.00 0.00 94 1018.1
20260906095516 20 55 0.0 3.2 0.00 0.00 0.00 94 1017.8
20260906095016 20 142 1.6 3.2 0.00 0.00 0.00 94 1017.8
20260906094531 20 28 0.0 3.2 0.00 0.00 0.00 94 1017.7
20260906094019 20 79 0.0 0.0 0.00 0.00 0.00 94 1017.7
20260906093518 20 79 0.0 0.0 0.00 0.00 0.00 94 1017.7
20260906093046 20 79 0.0 3.2 0.00 0.00 0.00 94 1017.5
20260906092509 20 79 0.0 3.2 0.00 0.00 0.00 94 1017.3
20260906092011 20 46 0.0 3.2 0.00 0.00 0.00 94 1017.3
20260906091525 20 118 1.6 3.2 0.00 0.00 0.00 94 1017.3
20260906091011 20 58 0.0 3.2 0.00 0.00 0.00 94 1017.3
20260906090513 20 98 0.0 3.2 0.00 0.00 0.00 93 1017.2
20260906090043 20 57 1.6 3.2 0.00 0.00 0.00 94 1017.2
20260906085514 20 66 1.6 3.2 0.00 0.00 0.00 94 1017.3
20260906085012 20 50 1.6 6.4 0.00 0.00 0.00 93 1017.3
20260906084534 20 16 1.6 9.7 0.00 0.00 0.00 93 1017.2
20260906084013 20 152 3.2 9.7 0.00 0.00 0.00 93 1017.2
20260906083516 20 51 4.8 11.3 0.00 0.00 0.00 93 1017.3
20260906083039 20 58 4.8 11.3 0.00 0.00 0.00 93 1017.4
20260906082518 20 54 4.8 9.7 0.00 0.00 0.00 93 1017.4
20260906082018 20 55 3.2 8.0 0.00 0.00 0.00 93 1017.3
20260906081533 20 53 3.2 8.0 0.00 0.00 0.00 93 1017.4
20260906081011 21 42 4.8 6.4 0.00 0.00 0.00 93 1017.4
20260906080513 20 70 1.6 3.2 0.00 0.00 0.00 93 1017.2
20260906080028 21 55 0.0 3.2 0.00 0.00 0.00 93 1017.2
20260906075511 21 76 0.0 3.2 0.00 0.00 0.00 92 1017.2
20260906075004 21 94 0.0 3.2 0.00 0.00 0.00 92 1017.4
20260906074521 21 56 1.6 4.8 0.00 0.00 0.00 92 1017.5
20260906074002 21 159 1.6 4.8 0.00 0.00 0.00 92 1017.5
20260906073504 21 125 0.0 6.4 0.00 0.00 0.00 92 1017.5
20260906073011 21 51 1.6 9.7 0.00 0.00 0.00 92 1017.5
20260906072506 21 49 4.8 9.7 0.00 0.00 0.00 92 1017.6
20260906072008 21 76 4.8 9.7 0.00 0.00 0.00 92 1017.6
20260906071518 21 50 4.8 6.4 0.00 0.00 0.00 92 1017.6
20260906071010 21 63 3.2 6.4 0.00 0.00 0.00 92 1017.5
20260906070510 21 59 3.2 6.4 0.00 0.00 0.00 92 1017.6
20260906070025 21 65 3.2 8.0 0.00 0.00 0.00 92 1017.7
20260906065513 21 67 4.8 8.0 0.00 0.00 0.00 92 1017.7
20260906065013 21 71 4.8 8.0 0.00 0.00 0.00 92 1017.7
20260906064503 21 87 1.6 6.4 0.00 0.00 0.00 92 1017.7
20260906064004 21 57 3.2 6.4 0.00 0.00 0.00 92 1017.9
20260906063504 21 66 3.2 6.4 0.00 0.00 0.00 92 1018.0
20260906063008 21 78 3.2 6.4 0.00 0.00 0.00 91 1018.0
20260906062506 21 70 3.2 6.4 0.00 0.00 0.00 91 1017.9
20260906062006 21 60 3.2 6.4 0.00 0.00 0.00 91 1017.9
20260906061512 21 52 1.6 4.8 0.00 0.00 0.00 91 1017.9
20260906061008 21 75 1.6 3.2 0.00 0.00 0.00 91 1017.8
20260906060509 21 60 0.0 4.8 0.00 0.00 0.00 91 1017.8
20260906060021 21 60 1.6 4.8 0.00 0.00 0.00 90 1017.8
20260906055511 21 76 0.0 3.2 0.00 0.00 0.00 90 1017.9
20260906055013 22 82 1.6 4.8 0.00 0.00 0.00 90 1017.8
20260906054526 22 75 1.6 8.0 0.00 0.00 0.00 90 1017.8
20260906054014 22 69 3.2 8.0 0.00 0.00 0.00 90 1017.8
20260906053513 22 52 1.6 6.4 0.00 0.00 0.00 90 1017.7
20260906053008 22 41 1.6 4.8 0.00 0.00 0.00 90 1017.6
20260906052504 22 51 1.6 4.8 0.00 0.00 0.00 90 1017.7
20260906052004 22 47 3.2 6.4 0.00 0.00 0.00 90 1017.8
20260906051511 22 78 1.6 6.4 0.00 0.00 0.00 89 1017.6
20260906051006 22 69 4.8 6.4 0.00 0.00 0.00 89 1017.5
20260906050505 22 52 3.2 6.4 0.00 0.00 0.00 89 1017.4
20260906050021 22 63 3.2 6.4 0.00 0.00 0.00 89 1017.4
20260906045511 22 49 3.2 6.4 0.00 0.00 0.00 89 1017.5
20260906045010 22 51 3.2 6.4 0.00 0.00 0.00 89 1017.5
20260906044526 22 48 3.2 6.4 0.00 0.00 0.00 89 1017.4
20260906044015 22 55 3.2 8.0 0.00 0.00 0.00 89 1017.4
20260906043514 22 59 3.2 8.0 0.00 0.00 0.00 89 1017.5
20260906043031 22 49 4.8 8.0 0.00 0.00 0.00 89 1017.5
20260906042516 22 58 3.2 6.4 0.00 0.00 0.00 89 1017.5
20260906042002 22 56 3.2 4.8 0.00 0.00 0.00 89 1017.6
20260906041512 22 63 1.6 6.4 0.00 0.00 0.00 89 1017.6
20260906041006 23 82 1.6 8.0 0.00 0.00 0.00 89 1017.6
20260906040509 23 61 4.8 8.0 0.00 0.00 0.00 89 1017.6
20260906040013 23 59 4.8 8.0 0.00 0.00 0.00 89 1017.4
20260906035509 23 71 3.2 8.0 0.00 0.00 0.00 88 1017.4
20260906035010 23 61 3.2 8.0 0.00 0.00 0.00 88 1017.4
20260906034525 23 55 3.2 8.0 0.00 0.00 0.00 88 1017.4
20260906034009 23 44 3.2 8.0 0.00 0.00 0.00 88 1017.4
20260906033513 23 54 3.2 6.4 0.00 0.00 0.00 88 1017.3
20260906033026 23 63 1.6 6.4 0.00 0.00 0.00 88 1017.3
20260906032516 23 41 3.2 8.0 0.00 0.00 0.00 88 1017.2
20260906032016 23 76 3.2 8.0 0.00 0.00 0.00 88 1017.1
20260906031536 23 49 4.8 8.0 0.00 0.00 0.00 88 1017.1
20260906031007 23 54 3.2 8.0 0.00 0.00 0.00 88 1017.1
20260906030503 23 65 3.2 12.9 0.00 0.00 0.00 88 1017.1
20260906030011 23 74 3.2 12.9 0.00 0.00 0.00 88 1017.1
20260906025508 23 60 4.8 8.0 0.00 0.00 0.00 88 1017.1
20260906025007 23 41 3.2 8.0 0.00 0.00 0.00 88 1017.0
20260906024517 23 68 4.8 8.0 0.00 0.00 0.00 88 1017.0
20260906024011 23 63 4.8 8.0 0.00 0.00 0.00 88 1017.0
20260906023512 23 55 3.2 11.3 0.00 0.00 0.00 87 1016.9
20260906023026 23 55 3.2 11.3 0.00 0.00 0.00 87 1016.9
20260906022512 23 59 4.8 8.0 0.00 0.00 0.00 87 1016.9
20260906022016 24 88 4.8 9.7 0.00 0.00 0.00 87 1016.9
20260906021530 24 59 4.8 9.7 0.00 0.00 0.00 87 1016.7
20260906021016 24 64 4.8 6.4 0.00 0.00 0.00 87 1016.7
20260906020513 24 61 3.2 6.4 0.00 0.00 0.00 86 1016.6
20260906020034 24 63 3.2 6.4 0.00 0.00 0.00 86 1016.5
20260906015505 24 74 1.6 6.4 0.00 0.00 0.00 86 1016.4
20260906015007 24 75 3.2 6.4 0.00 0.00 0.00 86 1016.2
20260906014535 24 45 3.2 6.4 0.00 0.00 0.00 86 1016.1
20260906014007 24 55 3.2 6.4 0.00 0.00 0.00 86 1016.0
20260906013514 24 57 3.2 6.4 0.00 0.00 0.00 86 1016.0
20260906013026 24 60 3.2 6.4 0.00 0.00 0.00 86 1016.0
20260906012512 24 60 3.2 8.0 0.00 0.00 0.00 86 1015.9
20260906012005 25 85 1.6 8.0 0.00 0.00 0.00 85 1015.9
20260906011508 25 71 3.2 6.4 0.00 0.00 0.00 85 1015.9
20260906011005 25 61 3.2 6.4 0.00 0.00 0.00 85 1016.0
20260906010504 25 51 3.2 4.8 0.00 0.00 0.00 85 1016.0
20260906010033 25 40 1.6 6.4 0.00 0.00 0.00 85 1016.0
20260906005505 25 61 1.6 6.4 0.00 0.00 0.00 85 1016.0
20260906005009 25 66 1.6 4.8 0.00 0.00 0.00 85 1015.9
20260906004510 25 45 1.6 4.8 0.00 0.00 0.00 85 1015.8
20260906004006 25 77 1.6 4.8 0.00 0.00 0.00 84 1015.7
20260906003503 25 74 1.6 3.2 0.00 0.00 0.00 84 1015.6
20260906003010 25 74 3.2 4.8 0.00 0.00 0.00 84 1015.6
20260906002502 25 69 1.6 4.8 0.00 0.00 0.00 83 1015.6
20260906002005 25 59 0.0 6.4 0.00 0.00 0.00 83 1015.5
20260906001509 26 61 3.2 6.4 0.00 0.00 0.00 82 1015.6
20260906001003 26 57 3.2 6.4 0.00 0.00 0.00 82 1015.7
20260906000504 26 54 1.6 3.2 0.00 0.00 0.00 82 1015.6
20260906000007 26 47 1.6 4.8 0.00 0.00 0.00 81 1015.7
20260905235504 26 55 3.2 6.4 0.00 0.00 0.00 81 1015.7
20260905235006 26 53 0.0 6.4 0.00 0.00 0.00 81 1015.7
20260905234510 26 57 1.6 8.0 0.00 0.00 0.00 81 1015.7
20260905234010 26 58 3.2 8.0 0.00 0.00 0.00 81 1015.7
20260905233510 26 77 3.2 8.0 0.00 0.00 0.00 81 1015.6
20260905233012 27 76 4.8 14.5 0.00 0.00 0.00 80 1015.7
20260905232506 27 84 4.8 14.5 0.00 0.00 0.00 80 1015.7
20260905232006 27 55 4.8 12.9 0.00 0.00 0.00 80 1015.6
20260905231510 27 71 3.2 12.9 0.00 0.00 0.00 80 1015.6
20260905231011 27 89 6.4 12.9 0.00 0.00 0.00 81 1015.5
20260905230503 27 50 3.2 12.9 0.00 0.00 0.00 81 1015.4
20260905230014 27 62 6.4 11.3 0.00 0.00 0.00 80 1015.2
20260905225507 27 71 8.0 14.5 0.00 0.00 0.00 79 1015.2
20260905225004 27 77 6.4 16.1 0.00 0.00 0.00 79 1015.1
20260905224508 27 52 6.4 17.7 0.00 0.00 0.00 79 1015.1
20260905224005 28 104 4.8 20.9 0.00 0.00 0.00 78 1015.0
20260905223506 28 64 9.7 20.9 0.00 0.00 0.00 78 1014.9
20260905223019 28 49 9.7 19.3 0.00 0.00 0.00 78 1014.8
20260905222506 28 58 8.0 19.3 0.00 0.00 0.00 78 1014.9
20260905222007 28 76 11.3 22.5 0.00 0.00 0.00 78 1014.9
20260905221515 28 67 9.7 22.5 0.00 0.00 0.00 78 1014.9
20260905221007 29 63 4.8 19.3 0.00 0.00 0.00 77 1015.0
20260905220507 29 49 9.7 19.3 0.00 0.00 0.00 77 1014.9
20260905220013 29 52 8.0 17.7 0.00 0.00 0.00 77 1014.7
20260905215512 29 45 8.0 17.7 0.00 0.00 0.00 77 1014.7
20260905215010 29 85 8.0 17.7 0.00 0.00 0.00 77 1014.7
20260905214518 29 69 6.4 16.1 0.00 0.00 0.00 78 1014.7
20260905214005 29 83 8.0 17.7 0.00 0.00 0.00 77 1014.6
20260905213506 29 78 9.7 19.3 0.00 0.00 0.00 77 1014.6
20260905213018 29 64 6.4 20.9 0.00 0.00 0.00 77 1014.6
20260905212508 29 50 8.0 20.9 0.00 0.00 0.00 76 1014.8
20260905212008 29 61 9.7 16.1 0.00 0.00 0.00 77 1014.9
20260905211533 29 71 6.4 16.1 0.00 0.00 0.00 76 1015.0
20260905211010 29 101 6.4 16.1 0.00 0.00 0.00 76 1015.1
20260905210507 30 74 4.8 14.5 0.00 0.00 0.00 77 1015.2
20260905210015 30 68 3.2 16.1 0.00 0.00 0.00 77 1015.2
20260905205509 30 60 8.0 16.1 0.00 0.00 0.00 75 1015.2
20260905205008 30 49 4.8 14.5 0.00 0.00 0.00 76 1015.3
20260905204523 30 67 8.0 14.5 0.00 0.00 0.00 76 1015.3
20260905204011 30 62 6.4 14.5 0.00 0.00 0.00 75 1015.4
20260905203508 30 55 4.8 14.5 0.00 0.00 0.00 75 1015.3
20260905203034 30 77 4.8 14.5 0.00 0.00 0.00 75 1015.4
20260905202509 30 73 8.0 16.1 0.00 0.00 0.00 74 1015.5
20260905202006 30 55 4.8 16.1 0.00 0.00 0.00 74 1015.6
20260905201525 31 61 6.4 12.9 0.00 0.00 0.00 72 1015.6
20260905201008 31 60 1.6 16.1 0.00 0.00 0.00 75 1015.6
20260905200508 30 80 4.8 16.1 0.00 0.00 0.00 74 1015.6
20260905200017 31 82 4.8 14.5 0.00 0.00 0.00 73 1015.7
20260905195507 31 276 4.8 11.3 0.00 0.00 0.00 73 1015.8
20260905195011 30 85 1.6 16.1 0.00 0.00 0.00 76 1016.0
20260905194518 30 61 4.8 16.1 0.00 0.00 0.00 75 1016.0
20260905194010 30 69 3.2 14.5 0.00 0.00 0.00 76 1015.9
20260905193509 30 34 4.8 17.7 0.00 0.00 0.00 76 1015.9
20260905193023 30 323 6.4 17.7 0.00 0.00 0.00 76 1015.8
20260905192513 31 59 3.2 17.7 0.00 0.00 0.00 77 1015.9
20260905192008 30 28 1.6 17.7 0.00 0.00 0.00 77 1016.0
20260905191524 30 54 6.4 17.7 0.00 0.00 0.00 77 1016.1
20260905191008 31 91 9.7 16.1 0.00 0.00 0.00 75 1016.0
20260905190507 31 62 3.2 6.4 0.00 0.00 0.00 75 1016.3
20260905190023 31 312 1.6 16.1 0.00 0.00 0.00 77 1016.4
20260905185509 30 64 6.4 17.7 0.00 0.00 0.00 76 1016.4
20260905185011 31 105 9.7 17.7 0.00 0.00 0.00 74 1016.3
20260905184527 31 61 8.0 16.1 0.00 0.00 0.00 73 1016.4
20260905184013 31 333 0.0 6.4 0.00 0.00 0.00 73 1016.5
20260905183512 31 89 3.2 6.4 0.00 0.00 0.00 72 1016.4
20260905183025 31 319 1.6 4.8 0.00 0.00 0.00 73 1016.4
20260905182513 31 288 1.6 11.3 0.00 0.00 0.00 74 1016.4
20260905182011 30 64 4.8 11.3 0.00 0.00 0.00 76 1016.5
20260905181525 30 63 3.2 8.0 0.00 0.00 0.00 76 1016.5
20260905181010 30 57 1.6 8.0 0.00 0.00 0.00 77 1016.5
20260905180509 30 51 1.6 8.0 0.00 0.00 0.00 76 1016.5
20260905180018 30 55 3.2 8.0 0.00 0.00 0.00 76 1016.4
20260905175511 30 5 1.6 9.7 0.00 0.00 0.00 76 1016.4
20260905175010 30 59 3.2 9.7 0.00 0.00 0.00 76 1016.3
20260905174527 30 68 1.6 8.0 0.00 0.00 0.00 75 1016.2
20260905174011 30 63 3.2 11.3 0.00 0.00 0.00 76 1016.3
20260905173512 30 45 3.2 11.3 0.00 0.00 0.00 76 1016.2
20260905173026 30 33 8.0 11.3 0.00 0.00 0.00 76 1016.2
20260905172509 30 65 1.6 11.3 0.00 0.00 0.00 76 1016.3
20260905172011 30 50 6.4 11.3 0.00 0.00 0.00 76 1016.3
20260905171524 30 44 3.2 6.4 0.00 0.00 0.00 76 1016.2
20260905171013 30 32 3.2 14.5 0.00 0.00 0.00 77 1016.2
20260905170513 29 42 6.4 14.5 0.00 0.00 0.00 76 1016.2
20260905170025 30 44 8.0 14.5 0.00 0.00 0.00 77 1016.3
20260905165512 30 53 3.2 12.9 0.00 0.00 0.00 77 1016.4
20260905165010 29 352 6.4 12.9 0.00 0.00 0.00 77 1016.4
20260905164523 29 68 3.2 12.9 0.00 0.03 0.00 78 1016.4
20260905164010 29 89 6.4 12.9 0.00 0.05 0.00 77 1016.4
20260905163514 29 61 4.8 12.9 0.00 0.13 0.00 77 1016.4
20260905163028 29 65 6.4 12.9 0.00 0.15 0.00 77 1016.4
20260905162512 29 49 4.8 12.9 0.00 0.18 0.00 77 1016.4
20260905162003 29 348 4.8 16.1 0.00 0.18 0.00 78 1016.4
20260905161507 29 61 6.4 16.1 0.00 0.18 0.00 77 1016.3
20260905161005 29 65 6.4 16.1 0.00 0.18 0.00 77 1016.3
20260905160511 29 76 4.8 16.1 0.00 0.18 0.00 77 1016.3
20260905160014 29 55 6.4 12.9 0.00 0.18 0.00 77 1016.3
20260905155506 29 61 6.4 12.9 0.00 0.18 0.00 76 1016.2
20260905155008 29 51 6.4 14.5 0.00 0.18 0.00 77 1016.3
20260905154519 29 53 3.2 14.5 0.00 0.18 0.00 77 1016.2
20260905154009 28 70 8.0 14.5 0.00 0.18 0.00 77 1016.2
20260905153510 28 46 6.4 14.5 0.00 0.18 0.00 77 1016.3
20260905153028 28 42 4.8 12.9 0.00 0.18 0.00 78 1016.2
20260905152504 28 360 6.4 12.9 0.00 0.18 0.00 77 1016.1
20260905152003 28 141 6.4 11.3 0.00 0.18 0.00 77 1016.1
20260905151511 28 96 6.4 14.5 0.00 0.18 0.00 77 1016.1
20260905151003 28 34 4.8 14.5 0.00 0.18 0.00 77 1016.1
20260905150507 28 84 4.8 14.5 0.00 0.18 0.00 78 1016.0
20260905150019 27 88 8.0 14.5 0.00 0.18 0.00 78 1016.0
20260905145504 27 62 6.4 14.5 0.00 0.18 0.00 78 1015.9
20260905145008 27 61 6.4 14.5 0.00 0.18 0.00 78 1015.8
20260905144518 27 52 6.4 14.5 0.00 0.18 0.00 79 1015.8
20260905144008 27 74 4.8 11.3 0.00 0.18 0.00 80 1015.7
20260905143511 27 41 4.8 11.3 0.00 0.18 0.00 82 1015.6
20260905143026 27 40 4.8 12.9 0.00 0.18 0.00 82 1015.4
20260905142512 26 52 4.8 12.9 0.00 0.18 0.00 83 1015.6
20260905142012 26 57 1.6 8.0 0.00 0.18 0.00 84 1015.6
20260905141503 26 84 4.8 8.0 0.00 0.18 0.00 83 1015.6
20260905141006 26 59 0.0 4.8 0.00 0.18 0.00 85 1015.7
20260905140503 25 48 1.6 8.0 0.00 0.18 0.00 85 1015.6
20260905140009 25 63 3.2 8.0 0.00 0.18 0.00 86 1015.9
20260905135504 25 43 1.6 6.4 0.00 0.18 0.00 87 1015.9
20260905135003 25 65 1.6 6.4 0.00 0.18 0.00 88 1015.8
20260905134515 24 72 1.6 6.4 0.00 0.18 0.00 89 1015.6
20260905134008 24 42 3.2 6.4 0.00 0.18 0.00 88 1015.5
20260905133507 24 59 0.0 6.4 0.00 0.18 0.00 89 1015.3
20260905133020 24 69 3.2 6.4 0.00 0.18 0.00 89 1015.2
20260905132510 23 74 0.0 3.2 0.00 0.18 0.00 90 1015.2
20260905132012 23 55 0.0 3.2 0.00 0.18 0.00 91 1015.1
20260905131528 23 55 0.0 4.8 0.00 0.18 0.00 92 1015.0
20260905131013 23 55 1.6 4.8 0.00 0.18 0.00 92 1015.0
20260905130512 23 80 0.0 3.2 0.00 0.18 0.00 92 1015.0
20260905130004 22 80 0.0 4.8 0.00 0.18 0.00 92 1014.9
20260905125505 22 80 0.0 4.8 0.00 0.18 0.00 92 1014.8
20260905125004 22 65 1.6 6.4 0.00 0.18 0.00 92 1014.9
20260905124516 22 51 0.0 6.4 0.00 0.18 0.00 93 1014.9
20260905124005 22 60 3.2 4.8 0.00 0.18 0.00 93 1014.8
20260905123508 22 66 3.2 4.8 0.00 0.18 0.00 93 1014.7
20260905123017 22 57 3.2 4.8 0.00 0.18 0.00 93 1014.6
20260905122510 22 46 1.6 3.2 0.00 0.18 0.00 94 1014.6
20260905122012 22 46 0.0 3.2 0.00 0.18 0.00 94 1014.5
20260905121524 22 46 1.6 3.2 0.00 0.18 0.00 95 1014.5
20260905121017 22 46 0.0 3.2 0.00 0.18 0.00 95 1014.5
20260905120512 21 46 0.0 3.2 0.00 0.18 0.00 95 1014.4
20260905120027 21 29 0.0 3.2 0.00 0.18 0.00 95 1014.4
20260905115513 21 29 0.0 3.2 0.00 0.18 0.00 94 1014.4
20260905115004 21 29 0.0 3.2 0.00 0.18 0.00 94 1014.3
20260905114510 21 29 0.0 3.2 0.00 0.18 0.00 94 1014.2
20260905114003 21 29 0.0 3.2 0.00 0.18 0.00 94 1014.1
20260905113507 21 29 0.0 3.2 0.00 0.18 0.00 94 1014.1
20260905113017 21 29 0.0 3.2 0.00 0.18 0.00 94 1014.0
20260905112510 21 29 0.0 0.0 0.00 0.18 0.00 94 1013.8
20260905112010 21 29 0.0 0.0 0.00 0.18 0.00 94 1013.7
20260905111532 22 29 0.0 0.0 0.00 0.18 0.00 94 1013.7
20260905111011 22 29 0.0 0.0 0.00 0.18 0.00 94 1013.9
20260905110514 22 29 0.0 3.2 0.00 0.18 0.00 94 1014.0
20260905110030 22 29 0.0 3.2 0.00 0.18 0.00 94 1014.0
20260905105519 22 29 0.0 0.0 0.00 0.18 0.00 94 1014.0
20260905105014 22 29 0.0 3.2 0.00 0.18 0.00 94 1014.0
20260905104532 22 29 0.0 3.2 0.00 0.18 0.00 94 1013.9
20260905104019 22 64 0.0 0.0 0.00 0.18 0.00 93 1013.8